Location: *
(37.5724°S, 58.0067°E)
Time: 05:43:53
(UTC+00:00)

Cosmos 1933 Rocket - Pass Details

Date: 26 January 2021
Orbit: 607 x 630 km, 82.5° (Epoch: 06 March)

Event Time Altitude Azimuth Distance (km) Brightness Sun altitude
Rises 19:43:09 0° 199° (SSW) 2,957 8.1 -33.2°
Reaches altitude 10° 19:45:36 10° 208° (SSW) 2,039 7.0 -33.3°
Enters shadow 19:47:31 21° 226° (SW) 1,425 5.8 -33.4°
